Content
SEND FEEDBACK

Daily
Averages
Monthly
Summary
Spain

A CORUŅA - DOWNTOWN, SPAIN


Home > Europe > Spain
Elevation: 220 feet     Latitude: 43 22N     Longitude: 008 25W

WEATHER
 
SELECT A DAY
Number of Records: 269,913;   Date Range: 7/1/96 - 7/22/14
 
SHARE

PRINT THIS DATA

[ ← Previous Day ]
WEATHER ALMANAC - JANUARY 31, 2013
[ Next Day → ]
[ °C ]   °F
Weather ElementAverageHighLow
Temperature60.1 °F64.4 °F (2:00 pm)57.2 °F (11:30 pm)
Dewpoint55.2 °F57.2 °F (11:30 am)51.8 °F (11:30 pm)
Humidity83.7 %94 % (11:30 am)73 % (2:30 pm)
Barometer30.36 in30.39 in (10:30 am)30.33 in (12:30 am)
Wind Speed10.2 mph15 mph (4:30 pm)
Wind Gust26.5 mph (1:30 pm)
Weather ElementAverage
Visibility6.1 mi
Wind DirectionSSW (201.3 °)

Weather ElementTotal
Precipitation---
Heating Degree Days4.2 (Base 65)
Growing Degree Days10.8 (Base 50)
Averaged from 38 records on January 31, 2013
WEATHER CONDITIONS BREAKOUT
WIND DIRECTION BREAKOUT
WEATHER BY HOUR - JANUARY 31, 2013
[ °C ]   °F
Local TimeTemperatureDewpointHumidityBarometerVisibilityWind DirectionWind SpeedGust SpeedPrecipitationEventsConditions
12:30 AM59.0 °F55.4 °F88 %30.33 in6.2 miSouth (190°)9.2 mphScattered Clouds
1:00 AM59.0 °F55.4 °F88 %30.33 in6.2 miSouth (170°)8.1 mphScattered Clouds
5:30 AM59.0 °F55.4 °F88 %30.36 in6.2 miSSW (200°)9.2 mphMostly Cloudy
6:00 AM59.0 °F55.4 °F88 %30.36 in5.0 miSSW (200°)6.9 mphLight Drizzle
6:30 AM59.0 °F55.4 °F88 %30.33 in6.2 miSouth (190°)8.1 mphScattered Clouds
7:00 AM59.0 °F55.4 °F88 %30.33 in6.2 miSouth (180°)8.1 mphScattered Clouds
7:30 AM59.0 °F55.4 °F88 %30.33 in6.2 miSouth (190°)8.1 mphScattered Clouds
8:00 AM59.0 °F55.4 °F88 %30.36 in6.2 miSSW (200°)9.2 mphLight Drizzle
8:30 AM59.0 °F55.4 °F88 %30.36 in6.2 miSouth (190°)10.4 mphLight Drizzle
9:00 AM59.0 °F55.4 °F88 %30.36 in6.2 miSSW (200°)10.4 mphMostly Cloudy
9:30 AM59.0 °F55.4 °F88 %30.36 in6.2 miSouth (190°)8.1 mphScattered Clouds
10:00 AM59.0 °F55.4 °F88 %30.36 in6.2 miSSW (200°)13.8 mphScattered Clouds
10:30 AM60.8 °F55.4 °F82 %30.39 in6.2 miSouth (190°)12.7 mphScattered Clouds
11:00 AM60.8 °F55.4 °F82 %30.39 in5.0 miSSW (200°)12.7 mphLight Drizzle
11:30 AM59.0 °F57.2 °F94 %30.39 in3.7 miSSW (200°)11.5 mphRainRain
12:00 PM59.0 °F57.2 °F94 %30.39 in6.2 miSSW (200°)11.5 mphRainLight Rain
12:30 PM60.8 °F55.4 °F82 %30.39 in6.2 miSSW (200°)13.8 mphScattered Clouds
1:30 PM62.6 °F57.2 °F82 %30.39 in6.2 miSSW (200°)13.8 mph26.5 mphScattered Clouds
2:00 PM64.4 °F57.2 °F77 %30.39 in6.2 miSSW (210°)12.7 mphMostly Cloudy
2:30 PM64.4 °F55.4 °F73 %30.36 in6.2 miSSW (210°)11.5 mph23.0 mphMostly Cloudy
3:00 PM64.4 °F57.2 °F77 %30.36 in6.2 miSW (220°)12.7 mphScattered Clouds
3:30 PM64.4 °F55.4 °F73 %30.36 in6.2 miSW (220°)13.8 mphMostly Cloudy
4:00 PM62.6 °F55.4 °F77 %30.36 in6.2 miSW (220°)10.4 mphMostly Cloudy
4:30 PM62.6 °F55.4 °F77 %30.36 in6.2 miSW (220°)15.0 mphScattered Clouds
5:00 PM62.6 °F55.4 °F77 %30.36 in6.2 miSW (220°)15.0 mphScattered Clouds
5:30 PM60.8 °F55.4 °F82 %30.36 in6.2 miSSW (200°)10.4 mphScattered Clouds
6:00 PM60.8 °F55.4 °F82 %30.36 in6.2 miSSW (210°)9.2 mphScattered Clouds
6:30 PM59.0 °F55.4 °F88 %30.36 in6.2 miSSW (210°)5.8 mphScattered Clouds
7:00 PM59.0 °F55.4 °F88 %30.36 in6.2 miSSW (210°)6.9 mphScattered Clouds
7:30 PM59.0 °F53.6 °F82 %30.36 in6.2 miSW (220°)10.4 mphScattered Clouds
8:00 PM59.0 °F53.6 °F82 %30.36 in6.2 miSW (220°)9.2 mphScattered Clouds
8:30 PM59.0 °F53.6 °F82 %30.36 in6.2 miSSW (210°)9.2 mphScattered Clouds
9:00 PM59.0 °F53.6 °F82 %30.33 in6.2 miSSW (200°)9.2 mphScattered Clouds
9:30 PM59.0 °F53.6 °F82 %30.33 in6.2 miSSW (200°)9.2 mphPartly Cloudy
10:00 PM59.0 °F53.6 °F82 %30.33 in6.2 miSouth (180°)6.9 mphScattered Clouds
10:30 PM59.0 °F53.6 °F82 %30.33 in6.2 miSSW (200°)8.1 mphScattered Clouds
11:00 PM59.0 °F53.6 °F82 %30.33 in6.2 miSouth (190°)6.9 mphScattered Clouds
11:30 PM57.2 °F51.8 °F82 %30.33 in6.2 miSouth (190°)9.2 mphScattered Clouds
Hourly data recorded from LECO, located miles away from A Coruņa - Downtown, Spain







STORIES FROM OUR PARTNERS